Location: Rounton
(54.4000°N, 1.3500°W)
Time: 23:05:52
(UTC+00:00)

deb Explorer IX - Pass Details

Date: 14 December 2021
Orbit: 544 x 1082 km, 38.8° (Epoch: 28 January)

Event Time Altitude Azimuth Distance (km) Brightness Sun altitude
Rises 04:20:00 0° 169° (S) 3,699 ? -33.1°
Enters shadow 05:29:46 -60° 258° (WSW) 12,117 ? -23.0°
Exits shadow 05:59:14 -7° 220° (SW) 4,582 ? -18.8°
Drops below altitude 10° 06:02:01 -1° 211° (SSW) 3,760 ? -18.4°
Sets 06:02:07 0° 210° (SSW) 3,730 ? -18.4°
Maximum altitude 06:09:03 11° 161° (SSE) 2,434 ? -17.4°
